Location: East Guldeford
(50.9500°N, 0.7500°E)
Time: 09:55:17
(UTC+00:00)

Cosmos 2082 Rocket - Pass Details

Date: 12 May 2021
Orbit: 834 x 852 km, 71.0° (Epoch: 16 June)

Event Time Altitude Azimuth Distance (km) Brightness Sun altitude
Rises 23:04:41 0° 318° (NW) 3,393 6.4 -19.8°
Reaches altitude 10° 23:08:10 10° 296° (WNW) 2,454 5.1 -20.0°
Maximum altitude 23:11:12 15° 263° (W) 2,117 4.3 -20.1°
Enters shadow 23:13:53 11° 233° (SW) 2,379 4.3 -20.1°
